Tracking 18780 objects as of 29-July-2017
HD Live streaming from Space Station
objects crossing your sky now
MAYAK may become the brightest orbital object in the night sky!
Where is MAYAK now?
How to spot MAYAK

NOAA 4

Track NOAA 4 now!
10-day predictions
NOAA 4 is classified as:


NORAD ID: 7529
Int'l Code: 1974-089A
Perigee: 1,452.0 km
Apogee: 1,465.3 km
Inclination: 101.6 °
Period: 114.9 minutes
Semi major axis: 7829 km
RCS: 3.1879 m2 (large)
Launch date: November 15, 1974
Source: United States (US)
Launch site: AIR FORCE WESTERN TEST RANGE (AFWTR)
Your satellite tracking list
Your tracking list is empty





NASA's NSSDC Master Catalog

Two Line Element Set (TLE):
1  7529U 74089A   17209.90695583 -.00000007 +00000-0 +23394-3 0  9997
2  7529 101.6430 177.9117 0008529 302.0507 080.1629 12.53111815953027
Source of the keplerian elements: AFSPC